Tracking 31027 objects as of 19-Jul-2025
HD Live streaming from Space Station
objects crossing your sky now

STARLINK-32321

Track STARLINK-32321 now!
10-day predictions
STARLINK-32321 is classified as:


NORAD ID: 61065
Int'l Code: 2024-164R
Perigee: 481.5 km
Apogee: 483.3 km
Inclination: 53.2 °
Period: 94.1 minutes
Semi major axis: 6853 km
RCS: Unknown
Launch date: September 13, 2024
Source: United States (US)
Launch site: AIR FORCE WESTERN TEST RANGE (AFWTR)
Your satellite tracking list
FLOCK 4V 13
Track 1 satellite(s)




NASA's NSSDC Master Catalog

Two Line Element Set (TLE):
1 61065U 24164R   25199.45626859  .00000249  00000-0  20533-4 0  9998
2 61065  53.1599  99.2338 0001355  91.4236 268.6920 15.30188750 47614
Source of the keplerian elements: AFSPC